Regional Weather Roundup
Issued by NWS

Home | Current Version | Previous Version | Graphics & Text | Print | Product List | Glossary On
Versions: 1 2 3 4 5 6 7 8 9 10 11 12 13 14 15 16 17 18 19 20 21 22 23 24 25 26 27 28 29 30 31 32 33 34 35 36 37 38 39 40 41 42 43 44 45 46 47 48 49 50
000
ASUS45 KBOI 220010
RWRID

IDAHO REGIONAL WEATHER ROUNDUP
NATIONAL WEATHER SERVICE BOISE ID
500 PM MST TUE NOV 21 2017

NOTE: "FAIR" INDICATES FEW OR NO CLOUDS BELOW 12000 FEET
WITH NO SIGNIFICANT WEATHER AND/OR OBSTRUCTIONS TO VISIBILITY

IDZ012-014-220100-
SOUTHWEST IDAHO


CITY           SKY/WX    TMP DP  RH WIND       PRES   REMARKS
BOISE          LGT RAIN  53  49  86 SE6       30.24F
CALDWELL       CLOUDY    51  49  92 SW6       30.26R
MOUNTAIN HOME  MOCLDY    55  55 100 E5        30.25S
$$

IDZ016-017-220100-
SOUTHCENTRAL IDAHO


CITY           SKY/WX    TMP DP  RH WIND       PRES   REMARKS
BURLEY         LGT RAIN  52  48  86 CALM      30.30R
JEROME         LGT RAIN  54  50  86 NE7       30.30R
TWIN FALLS     LGT RAIN  53  52  96 CALM      30.30R
$$

IDZ019>023-220100-
SOUTHEAST IDAHO


CITY           SKY/WX    TMP DP  RH WIND       PRES   REMARKS
IDAHO FALLS    LGT RAIN  40  40 100 VRB3      30.35R VSB 1
POCATELLO      CLOUDY    45  43  93 N5        30.33S
REXBURG        LGT RAIN  39  37  92 CALM      30.35S
$$

IDZ006-010-011-018-031-032-220100-
CENTRAL IDAHO MOUNTAINS


CITY           SKY/WX    TMP DP  RH WIND       PRES   REMARKS
MCCALL         LGT RAIN  39  38  96 CALM      30.26R VSB 1/2
HAILEY         CLOUDY    45  41  87 NW6       30.34R
STANLEY          N/A     41  39  93 SE6       30.33R
SALMON         LGT RAIN  38  36  92 CALM      30.29S
CHALLIS        CLOUDY    41  35  79 CALM      30.29R
$$

IDZ002-004-006-007-026-220100-
NORTHERN IDAHO


CITY           SKY/WX    TMP DP  RH WIND       PRES   REMARKS
LEWISTON       LGT RAIN  45  44  97 E10       30.14F
LOWELL           N/A     42  41  96 CALM      30.26S
COEUR D`ALENE  LGT RAIN  39  39 100 NE6       30.12F WCI  35
MULLAN PASS    LGT RAIN  33  31  92 S7        30.11F VSB 1/2 WCI  27
$$



USA.gov is the U.S. government's official web portal to all federal, state and local government web resources and services.